Temp
-7 -7 -7 -6 -6 -5 -6 -6 -6 -6 -6 -6 -6 -6 -7 -7 -7 -6 -7 -7 -7 -7 -7 -7 -7 -7 -7 -7 -7 -7 -7 -7 -7 -7 -7 -8 -8 -8
-7 -7 -7 -7 -7 -6 -6 -6 -6 -6 -6 -6 -6 -6 -6 -7 -7 -6 -6 -7 -7 -7 -7 -7 -7 -7 -7 -7 -7 -7 -7 -7 -7 -7 -7 -7 -7 -7
-7 -7 -7 -7 -7 -7 -6 -6 -6 -6 -6 -6 -6 -6 -6 -7 -7 -7 -7 -7 -7 -7 -7 -7 -7 -7 -7 -7 -7 -7 -7 -6 -6 -6 -7 -7 -7 -7
-7 -7 -7 -6 -6 -7 -7 -7 -6 -6 -6 -6 -6 -6 -7 -7 -7 -7 -7 -7 -7 -7 -7 -7 -7 -7 -7 -7 -7 -7 -7 -7 -6 -6 -6 -7 -7 -7
-7 -7 -7 -6 -7 -7 -7 -7 -7 -7 -7 -7 -7 -7 -7 -7 -7 -7 -7 -7 -7 -7 -7 -7 -7 -7 -7 -7 -7 -7 -7 -7 -6 -6 -6 -6 -6 -6
-7 -7 -6 -5 -6 -7 -7 -7 -7 -7 -7 -7 -7 -7 -7 -7 -7 -7 -7 -7 -7 -7 -7 -7 -7 -7 -7 -7 -7 -7 -7 -7 -6 -6 -6 -6 -6 -6
-7 -7 -6 -6 -6 -6 -7 -7 -8 -7 -7 -7 -7 -7 -7 -7 -7 -7 -7 -7 -7 -7 -7 -7 -7 -7 -7 -7 -7 -7 -7 -7 -6 -6 -6 -6 -6 -6
-7 -7 -7 -6 -6 -7 -7 -7 -8 -8 -8 -7 -7 -7 -8 -8 -8 -7 -7 -7 -7 -7 -7 -7 -7 -8 -7 -7 -6 -6 -6 -6 -6 -6 -6 -6 -6 -7
-6 -6 -6 -7 -7 -7 -7 -7 -7 -7 -7 -7 -7 -7 -8 -7 -7 -8 -7 -7 -7 -7 -8 -7 -7 -7 -7 -7 -7 -6 -6 -6 -6 -6 -6 -6 -7 -7
-6 -6 -6 -6 -6 -6 -6 -7 -7 -7 -7 -7 -8 -8 -7 -7 -7 -7 -7 -8 -8 -8 -7 -8 -8 -8 -7 -7 -7 -7 -6 -7 -6 -6 -6 -6 -6 -7
-7 -6 -6 -6 -6 -6 -6 -6 -6 -7 -7 -7 -8 -7 -7 -7 -7 -7 -8 -8 -8 -8 -8 -8 -7 -7 -7 -7 -7 -7 -7 -7 -6 -6 -6 -6 -6 -6
-8 -7 -7 -6 -6 -6 -6 -6 -6 -7 -7 -7 -8 -8 -8 -8 -8 -8 -8 -8 -8 -8 -8 -8 -8 -7 -7 -7 -7 -7 -7 -7 -7 -7 -7 -6 -6 -5
-8 -8 -7 -7 -7 -7 -7 -7 -7 -7 -7 -8 -8 -8 -8 -8 -8 -8 -8 -8 -8 -8 -7 -8 -8 -7 -7 -8 -6 -6 -7 -6 -6 -7 -7 -6 -6 -5
-8 -9 -9 -7 -7 -7 -7 -7 -7 -8 -8 -7 -7 -8 -8 -8 -7 -8 -8 -8 -7 -7 -7 -7 -7 -7 -7 -7 -7 -6 -6 -6 -6 -7 -7 -6 -6 -5
-9 -9 -9 -9 -8 -8 -8 -8 -8 -8 -8 -7 -8 -8 -8 -7 -8 -8 -8 -7 -8 -8 -8 -7 -6 -7 -7 -7 -7 -6 -6 -7 -6 -7 -7 -7 -6 -6
-9 -9 -8 -8 -9 -8 -8 -8 -8 -8 -8 -9 -8 -9 -8 -8 -9 -8 -8 -8 -8 -8 -7 -7 -6 -7 -7 -8 -7 -7 -7 -7 -7 -6 -7 -7 -6 -6
-7 -9 -8 -7 -8 -8 -8 -8 -7 -7 -8 -10 -9 -9 -9 -9 -9 -9 -8 -8 -8 -8 -7 -8 -7 -7 -7 -6 -7 -7 -7 -7 -8 -7 -7 -7 -7 -6
-8 -8 -8 -8 -8 -8 -9 -8 -7 -7 -8 -9 -9 -9 -9 -9 -9 -9 -9 -9 -8 -8 -8 -7 -7 -7 -7 -6 -5 -6 -7 -8 -8 -7 -7 -7 -7 -7
-7 -8 -7 -8 -8 -8 -9 -8 -7 -8 -8 -9 -10 -10 -9 -9 -9 -9 -9 -9 -8 -8 -8 -8 -8 -7 -7 -7 -7 -8 -8 -8 -8 -7 -7 -8 -7 -7
-7 -8 -7 -7 -7 -8 -9 -8 -8 -9 -9 -10 -10 -10 -9 -10 -9 -9 -9 -9 -9 -9 -8 -8 -8 -8 -8 -8 -8 -8 -8 -8 -8 -8 -8 -8 -7 -7
-9 -8 -8 -7 -8 -9 -10 -9 -10 -10 -10 -10 -10 -10 -10 -9 -9 -9 -9 -9 -9 -9 -8 -9 -9 -8 -9 -9 -8 -8 -8 -8 -8 -8 -8 -8 -8 -8
-9 -9 -9 -9 -8 -9 -10 -10 -10 -10 -10 -10 -10 -10 -10 -9 -9 -9 -9 -9 -9 -9 -9 -8 -8 -9 -9 -9 -9 -8 -8 -9 -8 -9 -8 -8 -8 -8
-10 -10 -10 -10 -10 -10 -11 -11 -11 -10 -11 -11 -10 -10 -10 -10 -10 -10 -10 -9 -9 -9 -9 -9 -8 -9 -9 -9 -9 -9 -9 -9 -9 -9 -9 -9 -8 -8
Height
5921 5921 5921 5923 5925 5926 5927 5927 5926 5926 5926 5926 5926 5926 5926 5926 5925 5925 5925 5923 5921 5920 5920 5920 5920 5919 5918 5917 5917 5916 5915 5913 5911 5910 5909 5908 5907 5906
5915 5915 5915 5916 5919 5920 5921 5923 5924 5923 5923 5922 5922 5923 5923 5923 5922 5922 5922 5921 5919 5918 5917 5917 5917 5916 5916 5914 5913 5912 5910 5908 5907 5905 5904 5902 5901 5899
5909 5909 5909 5910 5911 5913 5915 5917 5918 5919 5919 5918 5917 5917 5918 5919 5918 5918 5918 5918 5916 5914 5913 5913 5913 5912 5912 5911 5909 5907 5905 5904 5902 5901 5898 5896 5895 5894
5901 5903 5903 5902 5903 5905 5907 5910 5912 5913 5913 5913 5913 5913 5912 5912 5913 5913 5913 5913 5912 5911 5911 5911 5911 5910 5909 5907 5906 5904 5901 5900 5897 5895 5892 5890 5887 5887
5896 5896 5894 5888 5890 5897 5900 5903 5905 5906 5907 5907 5907 5907 5907 5907 5907 5908 5908 5908 5907 5907 5906 5906 5906 5904 5902 5901 5901 5899 5897 5894 5892 5889 5887 5884 5881 5878
5890 5890 5888 5881 5883 5888 5893 5896 5897 5897 5899 5900 5900 5901 5901 5901 5902 5902 5903 5903 5902 5901 5901 5900 5900 5899 5898 5897 5895 5892 5890 5888 5886 5883 5880 5877 5873 5870
5882 5883 5884 5882 5883 5883 5887 5890 5891 5890 5892 5894 5895 5894 5895 5895 5895 5895 5896 5897 5897 5897 5896 5895 5894 5894 5893 5892 5889 5886 5884 5881 5879 5876 5874 5870 5867 5863
5875 5877 5880 5882 5880 5881 5883 5883 5884 5885 5886 5887 5887 5888 5886 5888 5890 5890 5891 5891 5891 5891 5889 5888 5887 5885 5884 5882 5880 5878 5877 5874 5871 5869 5867 5864 5862 5860
5868 5868 5870 5874 5877 5877 5876 5877 5878 5879 5880 5880 5881 5881 5881 5882 5885 5885 5886 5887 5885 5883 5884 5881 5880 5878 5876 5876 5874 5871 5868 5866 5864 5862 5861 5858 5856 5855
5860 5863 5862 5864 5867 5869 5868 5869 5870 5871 5872 5872 5874 5876 5875 5878 5880 5880 5880 5879 5878 5879 5881 5881 5878 5876 5874 5873 5871 5866 5862 5859 5857 5856 5855 5853 5850 5848
5850 5852 5857 5857 5859 5861 5861 5862 5864 5864 5864 5865 5868 5869 5869 5871 5871 5873 5872 5872 5873 5875 5876 5872 5871 5870 5868 5867 5865 5864 5858 5855 5853 5851 5849 5847 5844 5841
5841 5842 5845 5848 5849 5850 5853 5856 5859 5858 5856 5859 5860 5860 5863 5862 5863 5863 5863 5865 5867 5867 5866 5865 5863 5861 5859 5857 5857 5855 5854 5851 5850 5848 5845 5842 5839 5836
5829 5832 5834 5836 5837 5839 5843 5847 5850 5848 5851 5852 5853 5853 5852 5854 5853 5853 5855 5857 5859 5858 5860 5859 5853 5853 5851 5849 5846 5845 5844 5841 5841 5840 5840 5837 5834 5831
5819 5819 5822 5826 5827 5830 5833 5837 5838 5840 5843 5845 5844 5846 5846 5846 5845 5847 5849 5849 5849 5847 5846 5844 5841 5839 5839 5837 5837 5837 5838 5838 5835 5833 5832 5831 5828 5824
5808 5807 5809 5814 5817 5821 5824 5826 5828 5831 5833 5836 5836 5836 5837 5836 5836 5837 5838 5838 5836 5836 5834 5834 5830 5826 5826 5828 5827 5826 5827 5826 5825 5825 5825 5824 5822 5819
5792 5794 5793 5798 5804 5810 5813 5815 5817 5819 5822 5826 5826 5826 5831 5829 5829 5828 5827 5827 5827 5827 5827 5823 5819 5816 5814 5815 5814 5815 5813 5812 5815 5813 5814 5814 5815 5814
5777 5779 5779 5782 5791 5797 5801 5804 5806 5806 5810 5813 5817 5818 5819 5820 5819 5817 5816 5818 5820 5818 5815 5815 5811 5810 5809 5806 5807 5808 5807 5808 5805 5806 5808 5807 5806 5806
5761 5763 5767 5771 5777 5782 5787 5792 5795 5797 5799 5803 5806 5809 5809 5810 5811 5812 5811 5810 5809 5808 5806 5806 5807 5801 5800 5798 5794 5792 5798 5799 5801 5800 5799 5797 5797 5797
5741 5747 5746 5755 5761 5769 5774 5780 5782 5786 5791 5793 5795 5797 5799 5800 5799 5800 5801 5801 5799 5797 5796 5795 5795 5795 5793 5790 5790 5786 5787 5790 5791 5792 5792 5790 5789 5787
5722 5727 5735 5743 5748 5757 5762 5768 5771 5775 5779 5783 5784 5784 5785 5785 5788 5787 5788 5789 5789 5788 5786 5786 5786 5786 5786 5783 5781 5783 5781 5780 5782 5784 5781 5781 5779 5777
5715 5715 5721 5726 5735 5743 5749 5756 5759 5763 5766 5768 5769 5770 5772 5775 5776 5777 5776 5776 5777 5778 5778 5776 5777 5774 5774 5774 5774 5772 5774 5772 5773 5774 5776 5773 5770 5768
5709 5711 5713 5715 5724 5730 5735 5741 5744 5747 5750 5751 5755 5757 5757 5759 5761 5761 5763 5763 5764 5763 5764 5763 5764 5766 5763 5764 5764 5764 5766 5766 5763 5762 5764 5766 5763 5760
5702 5706 5711 5713 5715 5718 5725 5731 5733 5736 5738 5738 5739 5741 5742 5745 5746 5748 5749 5750 5751 5752 5754 5753 5752 5755 5754 5754 5754 5753 5755 5756 5756 5755 5754 5756 5755 5754
Wind_Speed
27 27 29 30 27 25 24 22 20 20 20 18 17 16 15 14 15 14 13 12 10 10 9 9 9 10 10 10 11 11 14 15 17 17 18 15 18 22
26 26 30 30 30 28 26 25 21 22 21 20 20 19 17 16 15 14 13 12 12 12 11 11 11 10 11 13 13 14 16 16 18 17 18 20 20 19
27 28 28 30 31 31 28 26 25 23 22 21 20 21 19 18 17 15 15 14 13 14 13 13 12 13 15 16 17 18 19 20 20 21 21 23 23 24
21 28 31 37 37 34 31 29 29 26 23 23 21 22 21 19 19 19 17 17 16 16 15 16 16 18 19 20 21 22 24 24 25 25 26 26 26 26
27 30 31 31 40 36 33 31 29 28 26 24 24 22 21 22 21 22 21 21 20 19 20 19 20 19 21 22 23 25 26 27 28 28 28 28 30 30
25 23 25 23 33 34 34 29 29 29 27 27 26 23 23 24 23 25 26 25 24 23 21 21 22 23 24 25 25 29 30 29 29 29 27 28 29 29
23 20 17 12 21 24 27 28 29 29 26 27 28 27 26 24 23 29 29 28 26 25 24 24 25 26 25 26 29 31 31 31 30 29 25 24 24 22
22 20 21 21 22 23 23 24 27 27 27 28 31 30 29 26 26 28 30 29 27 25 28 26 25 25 26 27 30 29 31 31 31 28 26 24 23 20
24 21 23 25 26 26 28 28 28 29 30 31 31 32 30 28 27 27 29 28 29 29 28 29 27 28 29 28 30 31 31 29 28 28 25 22 21 21
25 26 25 26 27 28 29 28 28 29 28 30 31 31 30 28 29 29 30 32 32 31 27 30 31 33 33 32 29 30 27 26 26 22 20 18 18 19
28 29 31 31 30 32 31 32 32 29 30 29 28 29 30 28 32 31 33 33 32 30 28 32 34 33 34 33 35 30 25 25 24 20 20 21 21 22
31 35 35 36 35 35 37 33 33 32 34 31 31 31 30 32 32 33 36 35 34 33 31 32 32 33 35 34 33 32 26 24 23 24 24 22 22 22
34 37 40 42 41 39 38 34 34 36 35 34 34 35 34 33 34 35 35 35 33 33 30 31 35 35 35 36 34 34 29 22 22 24 26 25 24 24
41 43 44 47 46 42 40 37 37 38 37 38 37 36 35 34 37 34 32 32 33 34 34 35 37 39 37 36 35 34 33 29 25 24 25 25 25 24
47 50 51 50 49 44 40 37 36 38 41 42 39 34 33 28 28 27 30 32 33 33 37 39 42 42 38 38 34 32 33 29 27 25 24 25 24 22
56 60 59 57 49 46 44 42 43 44 46 45 42 37 32 25 25 26 28 31 33 33 33 38 39 34 34 34 35 34 32 30 29 26 23 22 23 23
55 60 59 60 55 51 48 47 44 42 48 45 40 35 32 30 29 26 27 30 31 32 31 30 33 33 32 31 35 39 35 32 27 25 23 22 21 22
55 60 61 70 62 55 53 52 52 52 45 42 38 37 37 36 34 31 30 30 30 31 30 29 30 34 33 34 31 31 34 31 27 26 25 24 23 23
59 59 64 68 69 61 58 55 43 42 43 40 40 39 40 40 37 37 36 35 33 31 30 30 31 31 32 29 24 20 25 28 28 29 27 26 25 25
35 54 53 64 71 63 57 54 46 44 40 42 43 44 45 46 45 42 42 42 39 36 34 34 32 30 29 28 25 25 26 27 30 32 28 28 28 26
12 42 55 59 67 62 56 54 47 46 48 48 49 49 51 52 51 50 47 44 42 43 41 37 35 33 30 30 29 28 28 30 30 32 34 31 29 28
23 21 22 33 54 44 57 51 50 52 51 50 46 51 54 56 54 54 53 49 46 44 46 44 41 38 35 33 33 32 31 31 34 32 33 33 30 27
26 25 27 31 36 38 44 48 52 53 49 49 51 53 57 57 54 53 54 57 56 50 46 48 47 43 42 37 35 34 32 32 32 34 30 31 32 31
Wind_Direction
254 252 252 252 250 252 257 262 262 265 275 282 287 285 284 280 273 275 272 269 267 266 270 271 271 270 278 286 293 293 292 288 287 290 281 293 279 271
262 258 253 251 248 249 253 258 261 263 264 275 286 287 289 282 274 275 272 264 268 270 269 269 268 265 274 287 291 293 293 291 289 290 284 277 276 280
264 267 263 257 248 247 253 257 259 260 264 266 273 280 287 284 277 272 271 269 266 264 263 264 268 273 277 282 286 287 289 293 296 295 287 282 279 279
265 269 258 264 251 244 246 252 257 258 260 261 266 272 280 279 277 274 271 266 266 268 266 269 277 282 285 287 289 291 292 295 297 297 293 287 283 281
277 277 281 277 236 235 243 247 252 257 257 255 257 261 265 270 272 272 269 267 265 265 267 270 275 278 282 285 285 289 294 295 299 298 294 293 289 285
269 280 289 282 228 230 236 242 248 253 251 251 253 254 257 256 264 266 265 264 264 267 269 272 278 283 287 287 285 288 291 294 300 298 298 298 294 287
265 267 282 268 234 242 239 243 252 255 246 248 253 255 256 254 251 257 260 263 266 268 270 275 281 281 281 281 280 284 289 297 297 298 298 299 301 299
259 256 258 262 251 242 240 243 251 251 248 249 254 256 255 253 252 255 260 262 264 263 269 268 271 277 281 284 286 290 295 297 295 295 293 293 295 297
264 257 256 259 264 258 253 253 255 258 254 256 257 256 254 252 257 260 264 266 263 265 264 273 274 276 275 278 284 295 300 295 290 293 289 291 294 296
246 256 253 253 256 258 254 257 258 256 256 256 257 259 260 262 265 264 264 265 267 270 270 274 279 284 287 289 289 300 299 296 293 288 288 293 296 301
243 243 250 250 249 252 253 250 252 253 254 254 256 258 262 264 265 266 266 265 271 275 273 276 281 284 287 291 296 299 296 300 295 282 285 291 297 298
258 247 241 245 246 246 250 251 252 252 251 252 254 254 257 260 260 263 265 268 273 275 274 275 281 283 282 285 288 292 295 297 294 287 287 291 297 296
251 253 250 245 245 246 249 249 251 251 252 253 252 251 252 253 256 258 262 270 274 276 283 283 283 286 284 283 282 285 289 285 283 286 293 298 300 302
254 250 252 249 249 247 247 247 248 251 251 252 252 256 261 263 261 263 271 277 281 281 281 281 283 282 278 281 278 281 285 286 283 284 289 292 296 298
256 252 248 248 247 247 247 245 248 252 252 255 254 256 263 265 264 263 267 270 271 278 284 287 289 284 277 279 276 272 279 282 276 280 287 291 290 293
255 256 253 248 238 243 243 245 250 253 251 250 251 257 262 257 258 257 261 265 270 277 289 293 288 282 274 276 272 270 268 266 268 268 274 284 289 290
256 252 251 252 239 241 244 246 247 251 259 243 244 247 252 255 259 258 261 269 272 277 286 297 295 287 285 282 279 280 272 265 257 263 271 279 285 285
249 253 253 249 245 236 244 248 250 256 252 234 237 244 250 255 260 268 277 280 282 284 291 296 298 295 292 288 283 273 263 264 262 263 262 269 278 283
250 245 249 236 227 244 238 247 246 239 234 233 239 244 251 260 263 268 272 276 278 280 281 286 289 290 288 288 285 264 254 260 263 265 265 270 276 279
255 235 232 240 242 244 236 239 232 232 234 240 245 249 252 256 260 263 268 271 274 275 276 277 281 282 281 277 273 268 263 261 266 270 267 269 272 274
253 232 225 236 236 225 225 228 228 232 236 242 249 254 259 262 263 267 268 269 270 273 275 277 273 272 270 274 273 268 267 268 269 271 272 273 273 275
234 245 222 214 218 214 219 222 230 235 239 245 251 260 259 260 264 267 269 267 268 270 269 268 270 267 265 265 268 269 270 270 271 269 272 273 276 280
209 215 209 212 215 222 229 240 243 244 252 257 254 254 262 263 266 269 271 270 272 270 269 269 268 265 263 262 262 263 266 268 272 271 268 271 277 279